KMDRIDGE9 Weather Reports


Display with metric or nautical units.
time (UTC)temp
F
wind
direction
speed
MPH
gust
MPH
rain 1hr
in
rain 24hr
in
rain mn
in
humidity
%
barometer
mb
20210625000247 73 92 5.0 7.0 0.00 0.00 0.00 54 1025.2
20210624234707 73 94 3.0 8.0 0.00 0.00 0.00 53 1025.1
20210624233115 73 84 3.0 8.0 0.00 0.00 0.00 53 1025.4
20210624231624 73 86 5.0 10.0 0.00 0.00 0.00 53 1025.4
20210624230151 73 94 4.0 9.0 0.00 0.00 0.00 53 1025.2
20210624224715 73 90 4.0 8.0 0.00 0.00 0.00 52 1025.2
20210624223200 73 97 0.0 7.0 0.00 0.00 0.00 52 1025.1
20210624221643 73 94 2.0 6.0 0.00 0.00 0.00 51 1025.2
20210624220123 72 93 4.0 8.0 0.00 0.00 0.00 52 1025.1
20210624214659 72 89 6.0 10.0 0.00 0.00 0.00 53 1025.2
20210624213134 73 92 3.0 9.0 0.00 0.00 0.00 54 1025.2
20210624211633 73 93 5.0 8.0 0.00 0.00 0.00 51 1025.3
20210624210133 73 93 6.0 8.0 0.00 0.00 0.00 52 1025.1
20210624204638 73 95 2.0 7.0 0.00 0.00 0.00 51 1025.1
20210624203123 73 93 7.0 11.0 0.00 0.00 0.00 52 1025.3
20210624201632 73 86 6.0 9.0 0.00 0.00 0.00 51 1025.5
20210624200209 73 84 6.0 9.0 0.00 0.00 0.00 51 1026.0
20210624194623 73 81 4.0 10.0 0.00 0.00 0.00 52 1026.3
20210624193238 73 68 7.0 10.0 0.00 0.00 0.00 51 1026.6
20210624191624 72 76 6.0 11.0 0.00 0.00 0.00 52 1026.6
20210624190140 72 73 7.0 9.0 0.00 0.00 0.00 53 1026.5
20210624184728 72 68 4.0 11.0 0.00 0.00 0.00 50 1026.8
20210624183119 72 74 7.0 11.0 0.00 0.00 0.00 53 1026.7
20210624181649 72 87 8.0 14.0 0.00 0.00 0.00 54 1026.8
20210624180206 72 91 9.0 14.0 0.00 0.00 0.00 53 1027.2
20210624174704 72 72 8.0 13.0 0.00 0.00 0.00 52 1027.5
20210624173150 72 88 8.0 12.0 0.00 0.00 0.00 51 1027.5
20210624171611 71 63 7.0 10.0 0.00 0.00 0.00 52 1028.1
20210624170140 71 74 8.0 13.0 0.00 0.00 0.00 51 1028.2
20210624164657 71 76 9.0 15.0 0.00 0.00 0.00 53 1028.1
20210624163114 71 71 9.0 13.0 0.00 0.00 0.00 52 1028.5
20210624161622 71 77 8.0 15.0 0.00 0.00 0.00 51 1028.3
20210624160124 71 62 10.0 15.0 0.00 0.00 0.00 51 1028.6
20210624154637 70 90 10.0 15.0 0.00 0.00 0.00 53 1028.2
20210624153120 70 84 12.0 15.0 0.00 0.00 0.00 53 1028.1
20210624151620 70 70 11.0 16.0 0.00 0.00 0.00 51 1028.0
20210624150114 70 69 12.0 16.0 0.00 0.00 0.00 52 1028.0
20210624144624 70 69 13.0 17.0 0.00 0.00 0.00 51 1027.8
20210624143122 70 85 13.0 16.0 0.00 0.00 0.00 50 1027.5
20210624141628 70 84 13.0 16.0 0.00 0.00 0.00 51 1027.6
20210624140213 70 85 10.0 15.0 0.00 0.00 0.00 52 1027.8
20210624134651 70 63 9.0 13.0 0.00 0.00 0.00 52 1027.9
20210624133140 70 69 10.0 13.0 0.00 0.00 0.00 53 1027.8
20210624131703 70 77 9.0 12.0 0.00 0.00 0.00 53 1028.0
20210624130128 70 77 8.0 11.0 0.00 0.00 0.00 50 1027.9
20210624124620 70 62 8.0 12.0 0.00 0.00 0.00 47 1027.8
20210624123146 69 74 8.0 13.0 0.00 0.00 0.00 49 1027.7
20210624121608 69 77 6.0 12.0 0.00 0.00 0.00 52 1027.6
20210624120131 70 80 7.0 10.0 0.00 0.00 0.00 51 1027.4
20210624114700 71 294 1.0 3.0 0.00 0.00 0.00 43 1027.3
20210624113154 70 18 1.0 5.0 0.00 0.00 0.00 43 1027.4
20210624111656 71 240 1.0 4.0 0.00 0.00 0.00 32 1027.4
20210624110224 68 235 0.0 2.0 0.00 0.00 0.00 3 1027.3
20210624104822 67 235 0.0 2.0 0.00 0.00 0.00 100 1027.2
20210624103215 66 236 0.0 4.0 0.00 0.00 0.00 100 1027.1
20210624101706 64 236 2.0 4.0 0.00 0.00 0.00 100 1026.9
20210624100232 63 236 2.0 4.0 0.00 0.00 0.00 100 1026.9
20210624094639 62 236 2.0 5.0 0.00 0.00 0.00 100 1026.7
20210624093115 62 194 2.0 3.0 0.00 0.00 0.00 100 1026.5
20210624091642 62 194 2.0 4.0 0.00 0.00 0.00 100 1026.2
20210624090158 62 194 2.0 4.0 0.00 0.00 0.00 100 1026.0
20210624084615 62 194 1.0 3.0 0.00 0.00 0.00 100 1025.8
20210624083139 62 194 2.0 3.0 0.00 0.00 0.00 100 1025.9
20210624081658 62 194 2.0 3.0 0.00 0.00 0.00 100 1025.9
20210624080151 62 194 2.0 3.0 0.00 0.00 0.00 100 1025.9
20210624074627 62 194 2.0 3.0 0.00 0.00 0.00 100 1026.1
20210624073145 62 194 2.0 3.0 0.00 0.00 0.00 100 1026.0
20210624071707 62 194 2.0 4.0 0.00 0.00 0.00 100 1026.0
20210624070133 62 194 1.0 3.0 0.00 0.00 0.00 100 1026.0
20210624064655 61 194 1.0 3.0 0.00 0.00 0.00 100 1025.9
20210624063140 61 194 2.0 3.0 0.00 0.00 0.00 100 1026.2
20210624061730 61 194 1.0 3.0 0.00 0.00 0.00 100 1026.1
20210624060102 61 194 1.0 3.0 0.00 0.00 0.00 4 1026.2
20210624054640 62 194 1.0 2.0 0.00 0.00 0.00 7 1026.2
20210624053147 62 194 1.0 3.0 0.00 0.00 0.00 8 1026.3
20210624051601 62 194 1.0 3.0 0.00 0.00 0.00 11 1026.3
20210624050317 63 194 1.0 3.0 0.00 0.00 0.00 12 1026.3
20210624044641 64 194 2.0 4.0 0.00 0.00 0.00 16 1026.2
20210624043108 64 194 2.0 8.0 0.00 0.00 0.00 20 1026.1
20210624041625 64 164 3.0 8.0 0.00 0.00 0.00 22 1026.1
20210624040137 64 184 2.0 6.0 0.00 0.00 0.00 26 1026.0
20210624034724 65 178 2.0 9.0 0.00 0.00 0.00 31 1026.1
20210624033150 65 167 4.0 11.0 0.00 0.00 0.00 32 1026.0
20210624031654 65 186 3.0 7.0 0.00 0.00 0.00 33 1026.1
20210624030144 64 192 4.0 7.0 0.00 0.00 0.00 28 1026.2
20210624024641 65 167 3.0 7.0 0.00 0.00 0.00 32 1026.1
20210624023242 64 155 2.0 7.0 0.00 0.00 0.00 19 1026.0
20210624021659 63 249 1.0 3.0 0.00 0.00 0.00 22 1025.8
20210624020129 63 249 1.0 3.0 0.00 0.00 0.00 22 1025.4
20210624014733 64 249 1.0 2.0 0.00 0.00 0.00 25 1025.4
20210624013209 65 249 1.0 2.0 0.00 0.00 0.00 32 1025.2
20210624011658 66 248 1.0 3.0 0.00 0.00 0.00 39 1025.0
20210624010130 67 248 1.0 3.0 0.00 0.00 0.00 47 1024.8
20210624004708 67 248 1.0 3.0 0.00 0.00 0.00 52 1024.7
20210624003118 68 248 1.0 3.0 0.00 0.00 0.00 54 1024.6
20210624001821 69 250 1.0 5.0 0.00 0.00 0.00 54 1024.7